Simultaneous Nadir Overpasses (SNOs) Predictions

Prediction of SNOs between METOP-B and NOAA-19 Satellite Orbit:

Table of predicted SNOs for the next 14.0 days since TLE Epoch: 7/5/2015
Index Date (METOP-B) Time (METOP-B) Lat,Lon (METOP-B) SZA (METOP-B ) Date (NOAA-19) Time (NOAA-19) Lat,Lon (NOAA-19) SZA (NOAA-19 ) Distance(km) Time Diff (sec)
1 07/13/2015 04:32:35 75.01, 109.46 53.09 07/13/2015 04:31:23 75.02, 109.51 53.11 2.10 72
2 07/13/2015 05:23:17 -74.99, -83.25 126.92 07/13/2015 05:22:22 -75.03, -83.26 126.88 3.62 55
3 07/13/2015 06:13:57 74.99, 84.06 53.08 07/13/2015 06:13:25 74.99, 84.08 53.09 0.95 32
4 07/13/2015 07:04:39 -74.97,-108.65 126.93 07/13/2015 07:04:24 -75.00,-108.68 126.90 2.87 15
5 07/13/2015 07:55:19 74.97, 58.66 53.07 07/13/2015 07:55:27 74.96, 58.66 53.07 0.27 8
6 07/13/2015 08:46:01 -74.95,-134.05 126.94 07/13/2015 08:46:26 -74.97,-134.11 126.92 2.51 25
7 07/13/2015 09:36:41 74.95, 33.26 53.06 07/13/2015 09:37:29 74.94, 33.23 53.05 1.43 48
8 07/13/2015 10:27:23 -74.93,-159.44 126.95 07/13/2015 10:28:28 -74.94,-159.53 126.94 2.73 65
9 07/13/2015 11:18:15 74.34, 6.30 52.51 07/13/2015 11:19:20 74.38, 9.28 52.48 89.65 65




NCC Satellite Simultaneous Nadir Overpasses (SNOs) Prediction Service
